| time (UTC) | temp F | wind direction | speed knots | gust knots | rain 1hr in | rain 24hr in | rain mn in | humidity % | barometer mb |
| 20260505223359 | 48 | 150 | 7.0 | 0.0 | 0.00 | 0.00 | 0.00 | 82 | 1016.0 |
| 20260505221857 | 48 | 150 | 7.0 | 0.0 | 0.00 | 0.00 | 0.00 | 82 | 1016.0 |
| 20260505220400 | 48 | 150 | 7.0 | 0.0 | 0.00 | 0.00 | 0.00 | 82 | 1016.0 |
| 20260505214900 | 48 | 150 | 7.0 | 0.0 | 0.00 | 0.00 | 0.00 | 82 | 1016.0 |
| 20260505213400 | 50 | 140 | 7.8 | 0.0 | 0.00 | 0.00 | 0.00 | 76 | 1016.0 |
| 20260505211859 | 50 | 140 | 7.8 | 0.0 | 0.00 | 0.00 | 0.00 | 76 | 1016.0 |
| 20260505210400 | 50 | 140 | 7.8 | 0.0 | 0.00 | 0.00 | 0.00 | 76 | 1016.0 |
| 20260505204901 | 50 | 140 | 7.8 | 0.0 | 0.00 | 0.00 | 0.00 | 76 | 1016.0 |
| 20260505203359 | 50 | 140 | 7.8 | 0.0 | 0.00 | 0.00 | 0.00 | 76 | 1016.0 |
| 20260505201930 | 50 | 140 | 7.8 | 0.0 | 0.00 | 0.00 | 0.00 | 76 | 1016.0 |
| 20260505200400 | 50 | 140 | 7.8 | 0.0 | 0.00 | 0.00 | 0.00 | 76 | 1016.0 |
| 20260505194859 | 52 | 140 | 11.3 | 0.0 | 0.00 | 0.00 | 0.00 | 72 | 1015.0 |
| 20260505193359 | 52 | 140 | 11.3 | 0.0 | 0.00 | 0.00 | 0.00 | 72 | 1015.0 |
| 20260505191859 | 52 | 140 | 11.3 | 0.0 | 0.00 | 0.00 | 0.00 | 72 | 1015.0 |
| 20260505190359 | 52 | 140 | 11.3 | 0.0 | 0.00 | 0.00 | 0.00 | 72 | 1015.0 |
| 20260505184900 | 55 | 130 | 9.6 | 0.0 | 0.00 | 0.00 | 0.00 | 59 | 1015.0 |
| 20260505183400 | 55 | 130 | 9.6 | 0.0 | 0.00 | 0.00 | 0.00 | 59 | 1015.0 |
| 20260505181857 | 55 | 130 | 9.6 | 0.0 | 0.00 | 0.00 | 0.00 | 59 | 1015.0 |
| 20260505180400 | 55 | 130 | 9.6 | 0.0 | 0.00 | 0.00 | 0.00 | 59 | 1015.0 |
| 20260505174854 | 63 | 130 | 12.2 | 0.0 | 0.00 | 0.00 | 0.00 | 52 | 1015.0 |
| 20260505173359 | 63 | 130 | 12.2 | 0.0 | 0.00 | 0.00 | 0.00 | 52 | 1015.0 |
| 20260505171859 | 63 | 130 | 12.2 | 0.0 | 0.00 | 0.00 | 0.00 | 52 | 1015.0 |
| 20260505170400 | 63 | 130 | 12.2 | 0.0 | 0.00 | 0.00 | 0.00 | 52 | 1015.0 |
| 20260505164859 | 66 | 120 | 13.9 | 0.0 | 0.00 | 0.00 | 0.00 | 46 | 1014.0 |
| 20260505163400 | 66 | 120 | 13.9 | 0.0 | 0.00 | 0.00 | 0.00 | 46 | 1014.0 |
| 20260505161900 | 66 | 120 | 13.9 | 0.0 | 0.00 | 0.00 | 0.00 | 46 | 1014.0 |
| 20260505160400 | 66 | 120 | 13.9 | 0.0 | 0.00 | 0.00 | 0.00 | 46 | 1014.0 |
| 20260505153400 | 70 | 130 | 12.2 | 0.0 | 0.00 | 0.00 | 0.00 | 43 | 1014.0 |
| 20260505151908 | 70 | 130 | 12.2 | 0.0 | 0.00 | 0.00 | 0.00 | 43 | 1014.0 |
| 20260505150400 | 70 | 130 | 12.2 | 0.0 | 0.00 | 0.00 | 0.00 | 43 | 1014.0 |
| 20260505140359 | 72 | 90 | 4.3 | 0.0 | 0.00 | 0.00 | 0.00 | 36 | 1014.0 |
| 20260505124900 | 72 | 100 | 7.0 | 0.0 | 0.00 | 0.00 | 0.00 | 38 | 1015.0 |
| 20260505123359 | 72 | 100 | 7.0 | 0.0 | 0.00 | 0.00 | 0.00 | 38 | 1015.0 |
| 20260505121859 | 72 | 100 | 7.0 | 0.0 | 0.00 | 0.00 | 0.00 | 38 | 1015.0 |
| 20260505120412 | 0 | 0.0 | 0.0 | 0.00 | 0.00 | 0.00 | |||
| 20260505114907 | 70 | 120 | 6.1 | 0.0 | 0.00 | 0.00 | 0.00 | 35 | 1016.0 |
| 20260505113430 | 70 | 120 | 6.1 | 0.0 | 0.00 | 0.00 | 0.00 | 35 | 1016.0 |
| 20260505111900 | 70 | 120 | 6.1 | 0.0 | 0.00 | 0.00 | 0.00 | 35 | 1016.0 |
| 20260505110400 | 70 | 120 | 6.1 | 0.0 | 0.00 | 0.00 | 0.00 | 35 | 1016.0 |
| 20260505101900 | 70 | 200 | 6.1 | 0.0 | 0.00 | 0.00 | 0.00 | 38 | 1016.0 |
| 20260505100400 | 70 | 200 | 6.1 | 0.0 | 0.00 | 0.00 | 0.00 | 38 | 1016.0 |
| 20260505094901 | 66 | 210 | 5.2 | 0.0 | 0.00 | 0.00 | 0.00 | 40 | 1017.0 |
| 20260505093359 | 66 | 210 | 5.2 | 0.0 | 0.00 | 0.00 | 0.00 | 40 | 1017.0 |
| 20260505091859 | 66 | 210 | 5.2 | 0.0 | 0.00 | 0.00 | 0.00 | 40 | 1017.0 |
| 20260505090359 | 66 | 210 | 5.2 | 0.0 | 0.00 | 0.00 | 0.00 | 40 | 1017.0 |
| 20260505084859 | 64 | 200 | 6.1 | 0.0 | 0.00 | 0.00 | 0.00 | 52 | 1017.0 |
| 20260505083400 | 64 | 200 | 6.1 | 0.0 | 0.00 | 0.00 | 0.00 | 52 | 1017.0 |
| 20260505081900 | 64 | 200 | 6.1 | 0.0 | 0.00 | 0.00 | 0.00 | 52 | 1017.0 |
| 20260505080405 | 64 | 200 | 6.1 | 0.0 | 0.00 | 0.00 | 0.00 | 52 | 1017.0 |
| 20260505074923 | 0 | 0.0 | 0.0 | 0.00 | 0.00 | 0.00 | |||
| 20260505073359 | 59 | 210 | 5.2 | 0.0 | 0.00 | 0.00 | 0.00 | 59 | 1017.0 |
| 20260505071859 | 59 | 210 | 5.2 | 0.0 | 0.00 | 0.00 | 0.00 | 59 | 1017.0 |
| 20260505070359 | 59 | 210 | 5.2 | 0.0 | 0.00 | 0.00 | 0.00 | 59 | 1017.0 |
| 20260505064859 | 55 | 2.6 | 0.0 | 0.00 | 0.00 | 0.00 | 63 | 1016.0 | |
| 20260505063400 | 55 | 2.6 | 0.0 | 0.00 | 0.00 | 0.00 | 63 | 1016.0 | |
| 20260505061900 | 55 | 2.6 | 0.0 | 0.00 | 0.00 | 0.00 | 63 | 1016.0 | |
| 20260505060400 | 55 | 2.6 | 0.0 | 0.00 | 0.00 | 0.00 | 63 | 1016.0 | |
| 20260505054859 | 46 | 2.6 | 0.0 | 0.00 | 0.00 | 0.00 | 82 | 1016.0 | |
| 20260505053400 | 46 | 2.6 | 0.0 | 0.00 | 0.00 | 0.00 | 82 | 1016.0 | |
| 20260505051859 | 46 | 2.6 | 0.0 | 0.00 | 0.00 | 0.00 | 82 | 1016.0 | |
| 20260505050359 | 46 | 2.6 | 0.0 | 0.00 | 0.00 | 0.00 | 82 | 1016.0 | |
| 20260505040359 | 37 | 2.6 | 0.0 | 0.00 | 0.00 | 0.00 | 93 | 1015.0 | |
| 20260505034856 | 43 | 2.6 | 0.0 | 0.00 | 0.00 | 0.00 | 76 | 1015.0 | |
| 20260505033359 | 43 | 2.6 | 0.0 | 0.00 | 0.00 | 0.00 | 76 | 1015.0 | |
| 20260505031859 | 43 | 2.6 | 0.0 | 0.00 | 0.00 | 0.00 | 76 | 1015.0 | |
| 20260505030359 | 43 | 2.6 | 0.0 | 0.00 | 0.00 | 0.00 | 76 | 1015.0 | |
| 20260505024900 | 43 | 2.6 | 0.0 | 0.00 | 0.00 | 0.00 | 81 | 1015.0 | |
| 20260505023359 | 43 | 2.6 | 0.0 | 0.00 | 0.00 | 0.00 | 81 | 1015.0 | |
| 20260505021859 | 43 | 2.6 | 0.0 | 0.00 | 0.00 | 0.00 | 81 | 1015.0 | |
| 20260505020359 | 43 | 2.6 | 0.0 | 0.00 | 0.00 | 0.00 | 81 | 1015.0 | |
| 20260505014853 | 43 | 2.6 | 0.0 | 0.00 | 0.00 | 0.00 | 81 | 1015.0 | |
| 20260505013400 | 43 | 2.6 | 0.0 | 0.00 | 0.00 | 0.00 | 81 | 1015.0 | |
| 20260505011853 | 43 | 2.6 | 0.0 | 0.00 | 0.00 | 0.00 | 81 | 1015.0 | |
| 20260505010400 | 43 | 2.6 | 0.0 | 0.00 | 0.00 | 0.00 | 81 | 1015.0 | |
| 20260505004856 | 43 | 2.6 | 0.0 | 0.00 | 0.00 | 0.00 | 81 | 1015.0 | |
| 20260505003359 | 45 | 2.6 | 0.0 | 0.00 | 0.00 | 0.00 | 76 | 1015.0 | |
| 20260505001857 | 45 | 2.6 | 0.0 | 0.00 | 0.00 | 0.00 | 76 | 1015.0 | |
| 20260505000400 | 45 | 2.6 | 0.0 | 0.00 | 0.00 | 0.00 | 76 | 1015.0 | |
| 20260504234857 | 46 | 2.6 | 0.0 | 0.00 | 0.00 | 0.00 | 76 | 1016.0 | |
| 20260504233356 | 46 | 2.6 | 0.0 | 0.00 | 0.00 | 0.00 | 76 | 1016.0 | |
| 20260504231857 | 46 | 2.6 | 0.0 | 0.00 | 0.00 | 0.00 | 76 | 1016.0 | |
| 20260504230357 | 46 | 2.6 | 0.0 | 0.00 | 0.00 | 0.00 | 76 | 1016.0 | |
| 20260504224853 | 0 | 0.0 | 0.0 | 0.00 | 0.00 | 0.00 |